sat.trackr.live / text

‹ back to catalog

STARLINK-5444

NORAD 54768 · 2022-175L

PAYLOAD ACTIVE UNKNOWN

§ Identity

Operator
Country
US
Launch date
2022-12-17
Launch site
AFETR
Launch vehicle
Mass (kg)
RCS (m²)

Purposes: comms

External: N2YO · Heavens-Above · Gunter

§ Orbital elements

Epoch: 2026-05-25T03:04:37.356096Z

Period
95.44 min
Inclination
53.2138°
Eccentricity
0.0001663
Mean motion
15.08840035 rev/d
Perigee alt
538.6 km
Apogee alt
540.9 km
Semi-major
6,917.9 km
B*
3.6121e-5
RAAN
46.3596°
Arg perigee
73.4591°
Mean anomaly
286.6584°
Rev number
19,166

§ Raw data

STARLINK-54441 54768U 22175L   26145.12821014  .00000287  00000+0  36121-4 0  99972 54768  53.2138  46.3596 0001663  73.4591 286.6584 15.08840035191668

JSON: /api/v1/satellites/54768 · /tle

For live sub-satellite position, see the globe view (requires WebGL).

§ Visibility from observer

Set your observer location to see the next 7 days of passes ≥ 10°. The values pass through the URL so the page stays shareable.

No JS? Fill the form by hand. The geolocation button needs JavaScript.